This demonstration page uses our WeatherBlox Daily Observations layout. Learn more.

Left ArrowRight Arrow

Hourly Observations for December 24, 2016

Temp ( °F °C ) Dew Point ( °F °C ) Humidity (%) Winds ( mph kmh ) Pressure ( in mb ) Visibility ( mi km ) Precip ( " mm )
12:14 am 00:14 Cloudy 37 3 36 2 93 93 S 13 20 30.03 1017 5 8 N/A
12:34 am 00:34 Cloudy 37 3 36 2 93 93 S 10 17 30.00 1016 3 5 N/A
12:54 am 00:54 Cloudy 37 3 37 3 100 100 S 10 17 30.03 1017 2 3 N/A
1:14 am 01:14 Cloudy 37 3 37 3 100 100 SSW 12 19 30.03 1017 2 3 N/A
1:34 am 01:34 Cloudy 37 3 37 3 100 100 S 10 17 30.00 1016 2 3 N/A
1:54 am 01:54 Cloudy 37 3 37 3 100 100 S 9 15 30.00 1016 2 3 N/A
2:13 am 02:13 Cloudy 37 3 37 3 100 100 SSW 8 13 30.00 1016 2 3 N/A
2:34 am 02:34 Cloudy 37 3 37 3 100 100 SSW 7 11 30.03 1017 2 2 N/A
2:54 am 02:54 Cloudy 37 3 37 3 100 100 SSW 6 9 30.03 1017 2 2 N/A
3:14 am 03:14 Cloudy 37 3 37 3 100 100 SSW 3 6 30.03 1017 1 2 N/A
3:34 am 03:34 Cloudy 37 3 37 3 100 100 SW 3 6 30.03 1017 1 1 N/A
3:53 am 03:53 Cloudy 39 4 39 4 100 100 WSW 10 17 30.06 1018 2 3 N/A
4:14 am 04:14 Cloudy 41 5 39 4 93 93 W 12 19 30.06 1018 3 5 N/A
4:34 am 04:34 Cloudy 41 5 39 4 93 93 W 10 17 30.06 1018 3 5 N/A
4:53 am 04:53 Cloudy 41 5 39 4 93 93 W 10 17 30.06 1018 4 6 N/A
5:14 am 05:14 Cloudy 39 4 39 4 100 100 W 10 17 30.06 1018 5 8 N/A
5:34 am 05:34 Cloudy 39 4 39 4 100 100 W 9 15 30.06 1018 5 8 N/A
5:54 am 05:54 Cloudy 39 4 39 4 100 100 W 8 13 30.09 1019 4 6 N/A
6:14 am 06:14 Cloudy 39 4 39 4 100 100 W 9 15 30.09 1019 4 6 N/A
6:34 am 06:34 Cloudy 39 4 37 3 93 93 WNW 10 17 30.12 1020 4 6 N/A
6:54 am 06:54 Cloudy 39 4 37 3 93 93 WNW 9 15 30.12 1020 5 8 N/A
7:14 am 07:14 Cloudy 39 4 37 3 93 93 WNW 10 17 30.12 1020 7 11 N/A
7:34 am 07:34 Cloudy 37 3 37 3 100 100 NW 9 15 30.18 1022 7 11 N/A
7:53 am 07:53 Cloudy 37 3 37 3 100 100 WNW 10 17 30.21 1023 7 11 N/A
8:14 am 08:14 Cloudy 37 3 37 3 100 100 WNW 6 9 30.21 1023 5 8 N/A
8:34 am 08:34 Cloudy 37 3 36 2 93 93 NW 5 7 30.21 1023 5 8 N/A
8:53 am 08:53 Cloudy 37 3 36 2 93 93 NW 6 9 30.24 1024 5 8 N/A
9:14 am 09:14 Cloudy 37 3 36 2 93 93 NW 6 9 30.24 1024 3 5 N/A
9:34 am 09:34 Cloudy 37 3 36 2 93 93 NW 3 6 30.24 1024 3 5 N/A
9:53 am 09:53 Cloudy 37 3 37 3 100 100 NW 3 6 30.24 1024 3 5 N/A
10:14 am 10:14 Cloudy 37 3 37 3 100 100 NNW 6 9 30.24 1024 3 5 N/A
10:34 am 10:34 Cloudy 37 3 37 3 100 100 NW 3 6 30.27 1025 3 5 N/A
10:54 am 10:54 Cloudy 37 3 37 3 100 100 W 3 6 30.27 1025 3 5 N/A
11:33 am 11:33 Cloudy 39 4 37 3 93 93 SSW 5 7 30.27 1025 4 6 N/A
11:54 am 11:54 Cloudy 41 5 37 3 87 87 WSW 3 6 30.24 1024 4 6 N/A
12:14 pm 12:14 Mostly Cloudy 43 6 37 3 81 81 N N/A 30.24 1024 5 8 N/A
12:33 pm 12:33 Mostly Cloudy 41 5 37 3 87 87 N 6 9 30.21 1023 5 8 N/A
12:54 pm 12:54 Mostly Cloudy 39 4 37 3 93 93 N 6 9 30.27 1025 7 11 N/A
1:13 pm 13:13 Mostly Cloudy 41 5 37 3 87 87 NNE 7 11 30.24 1024 7 11 N/A
1:34 pm 13:34 Mostly Cloudy 41 5 37 3 87 87 NNE 7 11 30.24 1024 5 8 N/A
1:54 pm 13:54 Partly Cloudy 41 5 37 3 87 87 NNE 6 9 30.24 1024 7 11 N/A
2:14 pm 14:14 Mostly Cloudy 41 5 36 2 81 81 N 6 9 30.24 1024 7 11 N/A
2:34 pm 14:34 Cloudy 39 4 36 2 87 87 NNE 6 9 30.27 1025 7 11 N/A
2:54 pm 14:54 Cloudy 39 4 36 2 87 87 NNE 7 11 30.27 1025 7 11 N/A
3:14 pm 15:14 Mostly Cloudy 39 4 36 2 87 87 NNE 8 13 30.27 1025 7 11 N/A
3:34 pm 15:34 Mostly Cloudy 37 3 36 2 93 93 NNE 7 11 30.27 1025 7 11 N/A
3:53 pm 15:53 Cloudy 37 3 36 2 93 93 NE 7 11 30.30 1026 5 8 N/A
4:14 pm 16:14 Cloudy 37 3 34 1 87 87 NE 7 11 30.30 1026 5 8 N/A
4:34 pm 16:34 Cloudy 37 3 34 1 87 87 NE 5 7 30.30 1026 5 8 N/A
4:54 pm 16:54 Cloudy 36 2 34 1 93 93 NE 3 6 30.30 1026 4 6 N/A
5:14 pm 17:14 Cloudy 36 2 34 1 93 93 N N/A 30.33 1027 5 8 N/A
5:33 pm 17:33 Cloudy 36 2 34 1 93 93 E 3 6 30.33 1027 5 8 N/A
5:54 pm 17:54 Cloudy 36 2 34 1 93 93 ENE 3 6 30.33 1027 5 8 N/A
6:14 pm 18:14 Cloudy 36 2 34 1 93 93 NE 3 6 30.33 1027 5 8 N/A
6:34 pm 18:34 Cloudy 36 2 34 1 93 93 ENE 5 7 30.33 1027 5 8 N/A
6:54 pm 18:54 Cloudy 34 1 34 1 100 100 N N/A 30.33 1027 5 8 N/A
7:13 pm 19:13 Cloudy 34 1 34 1 100 100 ENE 5 7 30.33 1027 4 6 N/A
7:34 pm 19:34 Cloudy 34 1 34 1 100 100 ENE 5 7 30.33 1027 4 6 N/A
7:53 pm 19:53 Cloudy 34 1 34 1 100 100 E 7 11 30.33 1027 4 6 N/A
8:14 pm 20:14 Cloudy 34 1 34 1 100 100 ENE 3 6 30.36 1028 4 6 N/A
8:34 pm 20:34 Cloudy 34 1 34 1 100 100 E 6 9 30.36 1028 4 6 N/A
8:54 pm 20:54 Cloudy 34 1 34 1 100 100 E 5 7 30.36 1028 4 6 N/A
9:14 pm 21:14 Cloudy 34 1 34 1 100 100 E 7 11 30.33 1027 4 6 N/A
9:34 pm 21:34 Cloudy 34 1 34 1 100 100 ENE 5 7 30.36 1028 4 6 N/A
9:54 pm 21:54 Cloudy 34 1 34 1 100 100 NE 5 7 30.36 1028 4 6 N/A
10:14 pm 22:14 Cloudy 34 1 34 1 100 100 NE 3 6 30.36 1028 3 5 N/A
10:34 pm 22:34 Cloudy 34 1 34 1 100 100 ENE 5 7 30.36 1028 3 5 N/A
10:54 pm 22:54 Cloudy 34 1 34 1 100 100 ENE 8 13 30.36 1028 3 5 N/A
11:14 pm 23:14 Cloudy 34 1 34 1 100 100 E 6 9 30.36 1028 3 5 N/A
11:33 pm 23:33 Cloudy 34 1 34 1 100 100 E 6 9 30.36 1028 3 5 N/A
11:54 pm 23:54 Cloudy 34 1 34 1 100 100 N N/A 30.36 1028 4 6 N/A

Powered by AerisWeather